Home > Weather > Fairbanks > Past weeks

Flag for USA Past Weather in Fairbanks, Alaska, USA — Yesterday and Last 2 Weeks

Now
62 °F

Partly sunny.


Feels Like: 62 °F
Forecast: 50 / 63 °F
Wind: 5 mph from Southwest

Location: Wainwright U. S. Army Airfield

Current Time: Aug 25, 2016 at 9:08:48 PM

Latest Report: Aug 25, 2016 at 6:58 PM


Visibility: 10 mi

Pressure: 30.16 "Hg

Humidity: 81%

Dew Point: 56 °F

Location of FairbanksLocation

Past Weather in Fairbanks — Graph

°F

Fairbanks Temperature Yesterday

Maximum temperature yesterday: 70 °F (at 4:50 PM)
Minimum temperature yesterday: 48 °F (at 6:58 AM)
Average temperature yesterday: 60 °F

High & Low Weather Summary for the Past Weeks

 TemperatureHumidityPressure
High79 °F (Aug 13, 5:55 PM)100% (Aug 21, 1:03 AM)30.23 "Hg (Aug 21, 1:03 AM)
Low46 °F (Aug 18, 6:58 AM)26% (Aug 13, 5:55 PM)29.46 "Hg (Aug 14, 7:55 PM)
Average60 °F73%29.86 "Hg
* Reported Aug 10 6:58 PM — Aug 25 6:58 PM, Fairbanks, Weather by CustomWeather, © 2016

Note: Actual official high and low records may vary slightly from our data, if they occured in-between our weather recording intervals... More about our weather records

Advertising

Fairbanks Weather History for the Previous 24 Hours

Scroll right to see more
 ConditionsComfort  
Time TempWeatherWind HumidityBarometerVisibility
6:58 PM
Thu, Aug 25
62 °FPartly sunny.5 mph81%30.16 "Hg10 mi
6:53 PM63 °FPartly sunny.5 mph77%30.15 "Hg10 mi
5:58 PM60 °FMostly cloudy.8 mph87%30.16 "Hg10 mi
4:58 PM59 °FMostly cloudy.7 mph90%30.17 "Hg10 mi
3:58 PM59 °FMostly cloudy.10 mph94%30.18 "Hg9 mi
2:58 PM59 °FLow clouds.13 mph94%30.18 "Hg8 mi
1:58 PM60 °FLight rain. Mostly cloudy.8 mph91%30.18 "Hg8 mi
12:58 PM58 °FLight rain. Mostly cloudy.6 mph95%30.18 "Hg7 mi
11:58 AM57 °FLight rain. Fog.3 mph95%30.18 "Hg4 mi
10:58 AM58 °FLight rain. Fog.3 mph92%30.18 "Hg5 mi
9:58 AM57 °FMostly cloudy.No wind89%30.18 "Hg9 mi
8:58 AM56 °FScattered showers. More clouds than sun.No wind91%30.17 "Hg9 mi
7:58 AM56 °FScattered showers. Overcast.3 mph91%30.17 "Hg9 mi
6:58 AM56 °FOvercast.3 mph92%30.16 "Hg9 mi
5:58 AM57 °FOvercast.5 mph89%30.16 "Hg10 mi
4:58 AM57 °FOvercast.2 mph88%30.17 "Hg10 mi
3:58 AM56 °FOvercast.6 mph89%30.17 "Hg10 mi
2:58 AM56 °FPassing clouds.5 mph91%30.18 "Hg10 mi
1:58 AM58 °FOvercast.3 mph88%30.18 "Hg10 mi
12:58 AM57 °FMostly cloudy.3 mph88%30.18 "Hg10 mi
11:58 PM
Wed, Aug 24
56 °FPassing clouds.No wind95%30.16 "Hg9 mi
10:58 PM59 °FPassing clouds.No wind90%30.16 "Hg9 mi
9:58 PM62 °FOvercast.No wind81%30.17 "Hg10 mi
Weather by CustomWeather, © 2016

See weather overviewHow to use our weather pages